Tracking 19286 objects as of 19-Nov-2018
HD Live streaming from Space Station
objects crossing your sky now

OSCAR 3

Track OSCAR 3 now!
10-day predictions
OSCAR 3 is classified as:


NORAD ID: 1293
Int'l Code: 1965-016F
Perigee: 863.9 km
Apogee: 894.5 km
Inclination: 70.1 °
Period: 102.4 minutes
Semi major axis: 7250 km
RCS: 0.24 m2 (medium)
Launch date: March 9, 1965
Source: United States (US)
Launch site: AIR FORCE WESTERN TEST RANGE (AFWTR)

Uplink (MHz): 145.975-146.025
Downlink (MHz): 144.325-144.375
Beacon (MHz):
Mode: SSB CW
Call sign:
Status: Inactive

aabbcc
Your satellite tracking list
Your tracking list is empty




NASA's NSSDC Master Catalog

Two Line Element Set (TLE):
1  1293U 65016F   18323.20355353  .00000179  00000-0  14089-3 0  9998
2  1293  70.0743 282.3248 0021074 255.5597 104.3176 14.06292328743462
Source of the keplerian elements: AFSPC